TimeCET,TemperatureF,Dew PointF,Humidity,Sea Level PressureIn,VisibilityMPH,Wind Direction,Wind SpeedMPH,Gust SpeedMPH,PrecipitationIn,Events,Conditions,WindDirDegrees,DateUTC
12:25 AM,46.4,46.4,100,29.80,3.7,SSW,6.9,-,N/A,,Overcast,210,2012-11-17 23:25:00
12:29 AM,46.4,46.4,100,29.80,3.1,SSW,5.8,-,N/A,,Overcast,210,2012-11-17 23:29:00
12:32 AM,46.4,46.4,100,29.80,-9999.0,SSW,6.9,-,N/A,,Overcast,200,2012-11-17 23:32:00
12:48 AM,46.4,46.4,100,29.80,2.2,SSW,5.8,-,N/A,,Overcast,200,2012-11-17 23:48:00
12:55 AM,46.4,46.4,100,29.80,-9999.0,SSW,5.8,-,N/A,,Overcast,200,2012-11-17 23:55:00
1:25 AM,46.4,46.4,100,29.80,1.5,SSW,4.6,-,N/A,,Overcast,210,2012-11-18 00:25:00
1:55 AM,46.4,46.4,100,29.80,1.7,SSW,5.8,-,N/A,,Overcast,210,2012-11-18 00:55:00
2:25 AM,46.4,46.4,100,29.80,1.2,SSW,5.8,-,N/A,,Drizzle,210,2012-11-18 01:25:00
2:29 AM,46.4,46.4,100,29.80,1.1,SSW,5.8,-,N/A,,Overcast,210,2012-11-18 01:29:00
2:35 AM,46.4,46.4,100,29.80,0.9,SSW,4.6,-,N/A,,Overcast,210,2012-11-18 01:35:00
2:38 AM,46.4,46.4,100,29.80,0.9,SSW,4.6,-,N/A,,Overcast,210,2012-11-18 01:38:00
2:42 AM,46.4,46.4,100,29.80,0.9,SSW,4.6,-,N/A,,Overcast,210,2012-11-18 01:42:00
2:55 AM,46.4,46.4,100,29.80,1.0,SSW,4.6,-,N/A,,Mostly Cloudy,210,2012-11-18 01:55:00
2:56 AM,46.4,46.4,100,29.80,1.0,SSW,4.6,-,N/A,,Mostly Cloudy,210,2012-11-18 01:56:00
3:25 AM,46.4,46.4,100,29.80,0.8,SW,3.5,-,N/A,,Overcast,230,2012-11-18 02:25:00
3:55 AM,46.4,46.4,100,29.80,0.7,SSW,4.6,-,N/A,,Drizzle,210,2012-11-18 02:55:00
4:25 AM,46.4,46.4,100,29.80,0.8,SW,3.5,-,N/A,Rain,Light Rain,220,2012-11-18 03:25:00
4:55 AM,46.4,46.4,100,29.80,0.9,SW,3.5,-,N/A,Rain,Light Rain,230,2012-11-18 03:55:00
5:10 AM,46.4,46.4,100,29.80,1.1,SW,4.6,-,N/A,Rain,Light Rain,230,2012-11-18 04:10:00
5:25 AM,46.4,46.4,100,29.80,1.1,WSW,3.5,-,N/A,Rain,Light Rain,250,2012-11-18 04:25:00
5:55 AM,46.4,46.4,100,29.80,2.2,WNW,3.5,-,N/A,Rain,Light Rain,290,2012-11-18 04:55:00
6:08 AM,46.4,46.4,100,29.80,2.8,NNW,5.8,-,N/A,Rain,Light Rain,330,2012-11-18 05:08:00
6:25 AM,46.4,46.4,100,29.80,5.6,North,6.9,-,N/A,,Light Drizzle,360,2012-11-18 05:25:00
6:38 AM,46.4,46.4,100,29.83,5.6,North,4.6,-,N/A,,Drizzle,350,2012-11-18 05:38:00
6:45 AM,46.4,46.4,100,29.83,4.3,North,5.8,-,N/A,Rain,Light Rain,350,2012-11-18 05:45:00
6:55 AM,46.4,46.4,100,29.83,4.3,NNW,4.6,-,N/A,Rain,Light Rain,340,2012-11-18 05:55:00
7:11 AM,46.4,46.4,100,29.83,4.3,NW,3.5,-,N/A,,Light Drizzle,320,2012-11-18 06:11:00
7:20 AM,46.4,46.4,100,29.83,-9999.0,NNW,3.5,-,N/A,,Light Drizzle,340,2012-11-18 06:20:00
7:25 AM,46.4,46.4,100,29.83,-9999.0,NNW,3.5,-,N/A,,Drizzle,330,2012-11-18 06:25:00
7:26 AM,46.4,46.4,100,29.83,-9999.0,NW,3.5,-,N/A,Rain,Rain,310,2012-11-18 06:26:00
7:41 AM,46.4,46.4,100,29.86,1.7,NW,3.5,-,N/A,Rain,Light Rain,310,2012-11-18 06:41:00
7:45 AM,46.4,46.4,100,29.86,1.6,NW,3.5,-,N/A,Rain,Light Rain,320,2012-11-18 06:45:00
7:49 AM,46.4,46.4,100,29.83,1.4,NNW,3.5,-,N/A,Rain,Light Rain,330,2012-11-18 06:49:00
7:55 AM,46.4,46.4,100,29.83,1.4,NNW,3.5,-,N/A,Rain,Light Rain,340,2012-11-18 06:55:00
7:59 AM,46.4,46.4,100,29.83,1.3,NNW,3.5,-,N/A,Rain,Light Rain,340,2012-11-18 06:59:00
8:17 AM,46.4,46.4,100,29.86,1.7,WNW,2.3,-,N/A,,Drizzle,300,2012-11-18 07:17:00
8:25 AM,46.4,46.4,100,29.86,1.9,NW,3.5,-,N/A,,Drizzle,320,2012-11-18 07:25:00
8:55 AM,46.4,46.4,100,29.86,-9999.0,North,2.3,-,N/A,Rain,Rain,360,2012-11-18 07:55:00
9:00 AM,46.4,46.4,100,29.86,-9999.0,North,2.3,-,N/A,Rain,Light Rain,350,2012-11-18 08:00:00
9:04 AM,46.4,46.4,100,29.86,-9999.0,North,2.3,-,N/A,Rain,Light Rain,350,2012-11-18 08:04:00
9:09 AM,46.4,46.4,100,29.86,-9999.0,North,2.3,-,N/A,Rain,Light Rain,350,2012-11-18 08:09:00
9:13 AM,46.4,46.4,100,29.86,-9999.0,NW,2.3,-,N/A,,Drizzle,320,2012-11-18 08:13:00
9:25 AM,46.4,46.4,100,29.89,-9999.0,NW,3.5,-,N/A,Rain,Light Rain,320,2012-11-18 08:25:00
9:50 AM,46.4,46.4,100,29.89,-9999.0,NNW,2.3,-,N/A,,Light Drizzle,330,2012-11-18 08:50:00
9:55 AM,46.4,46.4,100,29.89,-9999.0,NNW,2.3,-,N/A,,Overcast,330,2012-11-18 08:55:00
9:59 AM,46.4,46.4,100,29.89,2.5,NW,3.5,-,N/A,Rain,Light Rain,320,2012-11-18 08:59:00
10:19 AM,46.4,46.4,100,29.89,-9999.0,NNW,3.5,-,N/A,,Mostly Cloudy,340,2012-11-18 09:19:00
10:25 AM,46.4,46.4,100,29.89,-9999.0,North,3.5,-,N/A,Rain,Light Rain,360,2012-11-18 09:25:00
10:29 AM,46.4,46.4,100,29.89,3.1,NNW,3.5,-,N/A,Rain,Light Rain,340,2012-11-18 09:29:00
10:33 AM,46.4,46.4,100,29.89,2.8,NW,3.5,-,N/A,Rain,Light Rain,320,2012-11-18 09:33:00
10:37 AM,46.4,46.4,100,29.89,3.1,NW,2.3,-,N/A,Rain,Light Rain,320,2012-11-18 09:37:00
10:41 AM,46.4,46.4,100,29.89,-9999.0,NNW,2.3,-,N/A,Rain,Light Rain,330,2012-11-18 09:41:00
10:46 AM,46.4,46.4,100,29.89,-9999.0,NNW,2.3,-,N/A,,Drizzle,330,2012-11-18 09:46:00
10:55 AM,46.4,46.4,100,29.92,-9999.0,WNW,3.5,-,N/A,Rain,Rain,290,2012-11-18 09:55:00
11:03 AM,46.4,46.4,100,29.92,3.1,WNW,3.5,-,N/A,Rain,Light Rain,300,2012-11-18 10:03:00
11:04 AM,46.4,46.4,100,29.92,2.8,NW,2.3,-,N/A,Rain,Rain,310,2012-11-18 10:04:00
11:13 AM,46.4,46.4,100,29.92,3.1,WNW,2.3,-,N/A,Rain,Light Rain,300,2012-11-18 10:13:00
11:25 AM,46.4,46.4,100,29.92,3.1,NW,2.3,-,N/A,Rain,Rain,310,2012-11-18 10:25:00
11:55 AM,46.4,46.4,100,29.92,3.1,WNW,3.5,-,N/A,,Mostly Cloudy,300,2012-11-18 10:55:00
11:58 AM,46.4,46.4,100,29.92,-9999.0,WNW,3.5,-,N/A,,Mostly Cloudy,300,2012-11-18 10:58:00
12:04 PM,46.4,46.4,100,29.92,3.1,WNW,3.5,-,N/A,,Mostly Cloudy,300,2012-11-18 11:04:00
12:15 PM,46.4,46.4,100,29.92,3.7,NW,3.5,-,N/A,Rain,Light Rain,310,2012-11-18 11:15:00
12:18 PM,46.4,46.4,100,29.92,5.0,NW,3.5,-,N/A,Rain,Light Rain,310,2012-11-18 11:18:00
12:25 PM,46.4,46.4,100,29.92,5.0,NW,4.6,-,N/A,Rain,Light Rain,310,2012-11-18 11:25:00
12:36 PM,46.4,44.6,93,29.92,5.6,NW,3.5,-,N/A,Rain,Light Rain,320,2012-11-18 11:36:00
12:55 PM,46.4,44.6,93,29.92,5.0,North,2.3,-,N/A,Rain,Light Rain,350,2012-11-18 11:55:00
1:25 PM,46.4,46.4,100,29.95,5.0,WNW,3.5,-,N/A,Rain,Light Rain,300,2012-11-18 12:25:00
1:42 PM,46.4,46.4,100,29.95,4.3,WNW,3.5,-,N/A,,Overcast,300,2012-11-18 12:42:00
1:45 PM,46.4,46.4,100,29.95,5.6,NW,3.5,-,N/A,,Overcast,310,2012-11-18 12:45:00
1:55 PM,46.4,46.4,100,29.95,6.2,NNW,2.3,-,N/A,,Overcast,330,2012-11-18 12:55:00
2:06 PM,46.4,44.6,93,29.92,6.2,NNW,2.3,-,N/A,,Overcast,340,2012-11-18 13:06:00
2:25 PM,48.2,44.6,87,29.95,6.2,NW,2.3,-,N/A,,Overcast,310,2012-11-18 13:25:00
2:55 PM,48.2,44.6,87,29.95,6.2,NW,2.3,-,N/A,,Mostly Cloudy,310,2012-11-18 13:55:00
3:25 PM,46.4,44.6,93,29.95,6.2,NW,2.3,-,N/A,,Mostly Cloudy,320,2012-11-18 14:25:00
3:55 PM,46.4,44.6,93,29.95,6.2,North,1.2,-,N/A,,Unknown,10,2012-11-18 14:55:00
4:25 PM,44.6,42.8,93,29.98,6.2,South,1.2,-,N/A,,Unknown,180,2012-11-18 15:25:00
4:34 PM,44.6,42.8,93,29.98,4.3,SW,2.3,-,N/A,,Mist,230,2012-11-18 15:34:00
4:38 PM,42.8,42.8,100,29.98,5.0,West,2.3,-,N/A,,Mist,260,2012-11-18 15:38:00
4:42 PM,42.8,41.0,93,29.98,3.7,West,2.3,-,N/A,,Mist,260,2012-11-18 15:42:00
4:48 PM,39.2,37.4,93,29.98,-9999.0,SSW,2.3,-,N/A,,Mist,200,2012-11-18 15:48:00
4:55 PM,41.0,41.0,100,29.98,0.5,SE,1.2,-,N/A,Fog,Fog,130,2012-11-18 15:55:00
4:59 PM,41.0,41.0,100,29.98,0.2,Calm,Calm,-,N/A,Fog,Fog,0,2012-11-18 15:59:00
5:03 PM,41.0,39.2,93,29.98,0.2,SE,1.2,-,N/A,Fog,Fog,140,2012-11-18 16:03:00
5:10 PM,41.0,39.2,93,29.98,0.2,South,1.2,-,N/A,Fog,Fog,180,2012-11-18 16:10:00
5:25 PM,39.2,39.2,100,29.98,0.2,SSE,1.2,-,N/A,Fog,Fog,150,2012-11-18 16:25:00
5:55 PM,37.4,37.4,100,30.01,0.2,SW,1.2,-,N/A,Fog,Fog,230,2012-11-18 16:55:00
6:25 PM,37.4,35.6,93,30.01,0.4,West,1.2,-,N/A,Fog,Fog,260,2012-11-18 17:25:00
6:55 PM,35.6,33.8,93,30.01,-9999.0,WSW,1.2,-,N/A,Fog,Fog,240,2012-11-18 17:55:00
7:25 PM,33.8,33.8,100,30.04,0.2,WSW,1.2,-,N/A,Fog,Fog,250,2012-11-18 18:25:00
7:55 PM,33.8,32.0,93,30.04,0.2,North,1.2,-,N/A,Fog,Fog,350,2012-11-18 18:55:00
8:25 PM,32.0,32.0,100,30.04,0.2,Calm,Calm,-,N/A,Fog,Fog,0,2012-11-18 19:25:00
8:55 PM,32.0,32.0,100,30.04,-9999.0,Calm,Calm,-,N/A,Fog,Fog,0,2012-11-18 19:55:00
9:25 PM,32.0,30.2,93,30.04,0.4,Calm,Calm,-,N/A,Fog,Light Freezing Fog,0,2012-11-18 20:25:00
9:55 PM,32.0,30.2,93,30.04,0.3,ESE,1.2,-,N/A,Fog,Light Freezing Fog,110,2012-11-18 20:55:00
10:25 PM,30.2,30.2,100,30.04,0.1,East,1.2,-,N/A,,Overcast,100,2012-11-18 21:25:00
10:55 PM,30.2,30.2,100,30.06,0.1,Calm,Calm,-,N/A,Fog,Light Freezing Fog,0,2012-11-18 21:55:00
11:25 PM,30.2,30.2,100,30.06,0.2,Calm,Calm,-,N/A,Fog,Light Freezing Fog,0,2012-11-18 22:25:00
11:55 PM,28.4,28.4,100,30.06,0.1,ESE,1.2,-,N/A,Snow,Light Snow,120,2012-11-18 22:55:00